STARLINK-31328, 58880

Orbit data source: Space-Track

STARLINK-31328, 58880 is a payload satellite owned by SpaceX/Seattle (US) in LEO that was launched on Mon, 29 Jan 2024 UTC via an FALCON 9 launch vehicle from the Air Force Western Test Range (AFWTR). Payload-class satellites include a variety of spacecraft equipped with specific instruments for various scientific and technological missions. These include communications satellites like Starlink; space stations such as the ISS; scientific satellites like the Hubble; Earth observation satellites from companies like Planet Labs, Umbra, and HawkEye 360; GPS; miniature CubeSats for education and research; and military/defense satellites.

Loading next visibility...
Identifier
58880, 2024-020E
Orbit
LEO
Country
Flag of USUS
Related business
Manufacturer
SpaceX/Seattle
Mission
Operational Commercial Communications
Bus & Motor
STARLINK V2M, Unknown motor
Mass
730 kg wet, ~700 kg dry
Launch date (UTC)
2024-01-29 (2 years ago)
Launch vehicle
FALCON 9
Launch site
Air Force Western Test Range (AFWTR)
Object type
Payload
Rocket body
Debris
Shape & HBR
Box + 2 Pan, 17.7 m
Radar Cross Section
33.884 m², Large (>1 m²)

Expand to show TLE details & history
Last TLE update: 2 days ago

TLE from 2 days ago
0 STARLINK-31328
1 58880U 24020E   26171.36204781 -.00002229  00000-0 -63174-4 0  9997
2 58880  53.1607 190.3024 0001465  82.2129 277.9038 15.30181648134003
Epoch: 2026-06-20T08:41Z
TLE epoch observation values (Epoch: 2026-06-20T08:41:20.930Z)
Latitude
-0.00004°
Longitude
151.3874°
Altitude
476.032 km
Speed
7.629 km/s
True Right ascension
12h 41m 12s
True Declination
0° 00' 00"
Sunlit
Object was in daylight at epoch
Visualization orbit readout
Latitude
Unknown
Longitude
Unknown
Altitude
Unknown
Speed
Unknown
Apparent Right ascension
Unknown
Apparent Declination
Unknown
Sunlit
N/A
Visualization observer readout
Local Sidereal Time
23:07:45
Azimuth
Unknown
Elevation
Unknown
Doppler factor
Unknown
Orbital elements
Apogee altitude
476.53 km
Perigee altitude
474.522 km
Semi-major axis
6,853.663 km
Eccentricity
0.00015
Inclination
53.1607°
RAAN
190.3024°
Arg. of periapsis
82.2129°
True anomaly
277.88717°
Mean anomaly
277.9038°
Eccentric anomaly
277.89549°
Mean motion
3.82524 °/min
Orbital period
94.11 mins
BSTAR
-0.000063174
Loading maneuver chart data...
Computing Atmospheric mass density...
Loading historical data...
Loading historical data...
Loading historical data...
Loading historical data...
Loading historical data...
Loading historical data...
Loading historical data...

Documentation

Showing up to 5 results
|